RH
22 22 23 23 23 24 25 26 25 25 25 24 22 20 19 18 18 18 18 18 18 19 20 20 20 20 22 30 36 37 39 39 38 39 37 37 37 35 34 34 33 32 32 30 28 26 24 23 23 24 25 25
24 25 25 26 26 27 28 28 28 27 26 24 22 21 20 21 20 20 20 20 21 21 21 21 21 21 24 31 37 39 40 40 39 40 39 39 39 37 37 36 37 36 34 32 31 32 31 28 29 30 32 32
27 28 28 29 29 30 30 30 30 28 26 24 22 22 22 22 21 21 22 21 21 22 22 22 22 23 26 31 37 40 41 40 40 41 40 40 40 38 39 39 39 38 37 35 33 35 35 33 34 34 35 36
30 30 31 31 31 31 31 30 29 27 25 23 23 23 22 22 21 21 21 21 21 21 21 22 22 24 28 32 36 40 41 41 41 41 41 41 41 40 40 40 40 40 39 38 37 37 37 37 37 37 37 38
31 31 31 31 31 31 29 26 24 23 23 22 22 21 21 20 20 20 20 20 20 20 20 21 21 25 29 31 34 39 41 41 41 41 41 41 41 41 41 41 40 40 40 40 40 39 39 39 38 39 40 40
32 32 32 31 31 28 24 22 21 21 21 20 20 19 19 19 18 18 18 18 18 18 18 19 20 23 25 28 32 37 41 41 40 41 41 41 42 41 41 41 41 41 40 40 40 40 40 40 40 40 41 42
32 31 31 30 27 23 20 19 19 18 18 17 17 17 17 16 16 16 16 16 16 16 17 17 19 20 22 25 28 33 38 39 39 40 39 39 41 41 41 41 41 41 40 41 40 41 40 40 41 41 42 43
31 30 29 26 22 19 17 17 16 16 16 16 15 15 15 15 15 15 15 15 15 15 16 16 17 18 20 22 23 27 32 34 38 38 37 39 41 41 41 41 41 41 41 41 41 42 41 41 41 42 43 43
29 27 25 21 18 16 16 15 15 15 15 15 15 14 14 14 14 14 14 14 14 14 14 14 15 16 17 20 22 26 28 28 31 33 37 41 41 41 41 41 41 41 41 41 41 42 42 42 42 42 43 44
27 24 20 17 16 15 15 15 15 15 15 14 14 13 13 13 13 13 13 13 13 13 13 14 14 15 16 17 20 23 26 26 25 28 36 40 40 40 40 40 40 40 40 40 41 42 42 43 43 42 43 45
23 20 17 15 15 15 15 15 15 14 14 13 13 13 13 14 14 14 14 15 15 14 14 14 15 15 16 17 18 20 23 25 24 27 32 36 39 40 39 39 39 40 39 39 40 41 42 43 43 44 44 45
19 17 15 15 15 15 15 14 14 14 13 14 14 15 16 17 18 18 18 18 18 18 18 18 17 17 17 18 19 19 21 23 24 27 29 32 35 37 38 37 37 39 39 38 39 39 41 42 43 45 45 45
15 15 15 15 15 15 15 14 14 14 14 16 16 17 19 20 21 21 22 22 22 22 22 21 20 20 20 19 20 20 20 21 23 26 29 32 33 35 38 36 36 38 38 38 38 39 40 41 43 45 46 48
14 14 14 15 15 15 15 15 15 16 17 18 19 19 20 21 22 23 24 25 25 26 26 25 23 22 22 21 21 21 21 22 22 23 25 28 31 34 38 38 37 38 38 38 38 39 40 41 43 46 48 50
14 14 15 15 15 15 15 16 17 18 19 19 20 21 23 24 25 26 27 28 29 30 30 30 28 26 25 24 23 23 22 22 22 22 22 24 26 28 34 39 39 38 38 38 38 40 41 42 44 47 49 52
14 15 15 15 15 15 16 17 18 19 20 20 21 23 26 28 30 31 31 32 33 34 34 34 33 32 30 28 26 26 25 25 23 22 22 22 23 24 29 36 39 39 40 40 40 41 42 43 45 47 50 51
15 15 15 15 15 16 16 18 19 20 21 22 23 26 27 29 33 35 36 36 36 36 36 36 36 35 34 33 31 29 29 28 26 24 22 22 22 22 25 29 32 36 40 43 44 45 46 46 48 49 49 50
15 15 15 16 16 17 18 20 21 22 23 25 27 29 29 30 33 36 37 38 37 37 37 37 36 35 35 35 35 34 33 33 32 30 27 24 23 23 24 26 28 32 39 45 48 49 50 50 50 51 50 51
15 16 17 17 18 18 20 21 23 24 27 29 30 31 31 32 34 36 37 37 37 37 37 37 36 35 35 36 36 38 39 39 38 37 34 30 27 26 27 28 30 35 40 47 50 50 51 52 52 52 51 51
17 18 18 18 18 19 21 23 25 28 30 31 32 33 33 34 35 37 37 37 37 38 38 37 36 36 36 36 37 39 42 45 45 44 41 37 33 30 31 32 34 38 44 50 53 53 53 53 52 53 52 51
19 19 19 19 19 20 22 25 28 31 32 32 32 33 34 35 37 37 37 37 37 37 36 36 35 35 35 35 36 39 42 47 50 50 47 45 41 37 35 36 37 42 48 53 56 56 55 54 54 53 52 52
21 21 21 21 21 22 25 28 31 32 32 32 33 33 34 36 37 37 37 36 35 35 34 34 33 33 33 33 35 37 41 45 49 51 51 48 47 45 42 41 41 44 49 55 58 59 59 57 56 54 53 52
23 23 23 23 23 25 27 29 31 31 31 32 33 34 35 36 37 37 37 35 35 35 34 33 33 32 32 32 33 35 38 42 46 49 50 49 47 47 47 48 47 47 50 54 58 60 61 60 59 57 55 54
22 24 24 25 25 27 29 30 31 31 32 32 33 35 36 36 37 37 37 36 36 36 35 35 34 34 34 33 34 34 35 38 42 46 49 49 49 48 49 51 51 51 51 54 57 59 61 62 61 59 57 56
20 23 24 25 26 27 29 31 31 31 32 33 34 35 36 36 37 39 40 39 39 39 39 39 38 37 37 36 36 36 36 37 39 42 45 46 48 48 49 51 52 53 54 55 57 58 60 62 62 59 59 59
18 21 25 26 26 26 28 31 31 31 32 34 35 35 37 36 37 39 41 42 42 43 43 42 42 41 40 39 38 38 38 38 39 40 41 42 44 46 48 50 52 55 55 56 57 58 59 61 61 59 59 60
17 20 24 27 28 28 29 31 32 32 32 34 35 36 37 37 38 40 43 44 45 45 45 45 44 44 43 42 41 40 39 38 38 39 40 40 41 43 46 50 52 53 54 55 56 57 58 59 60 60 60 58
17 18 22 26 29 31 32 32 32 32 32 34 36 37 38 39 40 42 44 46 46 47 47 47 46 45 45 44 42 41 40 38 37 38 39 40 41 42 45 49 50 51 52 52 53 55 56 55 57 59 59 55
18 19 21 24 29 32 33 34 34 33 33 34 36 37 38 40 42 44 46 47 48 49 49 49 48 48 47 46 44 42 40 38 37 38 39 40 40 41 44 48 51 51 51 50 50 52 54 54 55 56 55 54
19 20 21 24 27 31 34 35 36 35 33 33 35 36 38 41 43 45 47 48 50 50 50 51 51 50 50 48 46 44 42 39 38 38 38 38 38 39 42 46 50 52 52 50 48 49 52 53 54 54 53 55
20 21 22 24 26 30 33 35 36 36 35 34 35 37 38 41 43 45 47 49 50 51 52 52 53 53 52 51 49 46 44 41 40 39 38 37 36 36 38 42 47 50 52 52 50 49 51 52 53 53 54 55